sat.trackr.live / text

‹ back to catalog

STARLINK-11746 [DTC]

NORAD 64372 · 2025-127C

PAYLOAD ACTIVE UNKNOWN

§ Identity

Operator
Country
US
Launch date
2025-06-13
Launch site
AFETR
Launch vehicle
Mass (kg)
RCS (m²)

Purposes: comms

External: N2YO · Heavens-Above · Gunter

§ Orbital elements

Epoch: 2026-05-24T22:08:20.063616Z

Period
91.67 min
Inclination
43.0010°
Eccentricity
0.0001846
Mean motion
15.70865688 rev/d
Perigee alt
355.2 km
Apogee alt
357.7 km
Semi-major
6,734.6 km
B*
1.2349e-3
RAAN
344.8685°
Arg perigee
281.8380°
Mean anomaly
78.2281°
Rev number
5,549

§ Raw data

STARLINK-11746 [DTC]1 64372U 25127C   26144.92245444  .00161290  00000+0  12349-2 0  99992 64372  43.0010 344.8685 0001846 281.8380  78.2281 15.70865688 55494

JSON: /api/v1/satellites/64372 · /tle

For live sub-satellite position, see the globe view (requires WebGL).

§ Visibility from observer

Set your observer location to see the next 7 days of passes ≥ 10°. The values pass through the URL so the page stays shareable.

No JS? Fill the form by hand. The geolocation button needs JavaScript.